Home > Weather > Delmenhorst > Past weeks

Flag for Germany Weather for the Past 2 Weeks in Delmenhorst, Lower Saxony, Germany

Now
30 °F

Ice fog.


Feels Like: 23 °F
Forecast: 35 / 38 °F
Wind: 8 mph from East

Location: Bremen Airport

Current Time: Feb 13, 2016 at 10:55:11 AM

Latest Report: Feb 13, 2016 at 10:20 AM


Visibility: 1 mi

Pressure: 29.42 "Hg

Humidity: 100%

Dew point: 30 °F

Location of DelmenhorstLocation

Historic Weather in Delmenhorst — Graph

°F

Delmenhorst Temperature Yesterday

Maximum temperature yesterday: 43 °F (at 1:20 PM)
Minimum temperature yesterday: 28 °F (at 6:20 AM)
Average temperature yesterday: 35 °F

High & Low Weather Summary for the Past Weeks

 TemperatureHumidityPressure
High54 °F (Feb 1, 8:20 PM)100% (Feb 1, 12:20 AM)30.24 "Hg (Feb 1, 12:20 AM)
Low28 °F (Feb 12, 6:20 AM)61% (Feb 3, 1:20 PM)28.74 "Hg (Feb 9, 8:20 PM)
Average42 °F84%29.65 "Hg
* Reported Jan 29 9:20 AM — Feb 13 9:20 AM, Delmenhorst, Weather by CustomWeather, © 2016

Note: Actual official high and low records may vary slightly from our data, if they occured in-between our weather recording intervals... More about our weather records

Advertising

Delmenhorst Weather History for the Previous 24 Hours

 ConditionsComfort  
Time TempWeatherWind HumidityBarometerVisibility
9:20 AM
Sat, Feb 13
28 °FIce fog.8 mph100%29.42 "Hg1 mi
8:50 AM28 °FIce fog.9 mph100%29.45 "Hg1 mi
8:20 AM28 °FIce fog.7 mph100%29.45 "Hg1 mi
7:50 AM30 °FIce fog.7 mph93%29.45 "Hg1 mi
7:20 AM30 °FIce fog.6 mph93%29.45 "Hg1 mi
6:50 AM30 °FIce fog.7 mph93%29.45 "Hg1 mi
6:20 AM30 °FIce fog.5 mph100%29.45 "Hg1 mi
5:50 AM30 °FIce fog.7 mph93%29.45 "Hg1 mi
5:20 AM30 °FIce fog.6 mph100%29.47 "Hg0 mi
4:50 AM30 °FIce fog.6 mph100%29.47 "Hg0 mi
4:20 AM30 °FIce fog.7 mph100%29.47 "Hg0 mi
3:20 AM30 °FIce fog.7 mph93%29.47 "Hg0 mi
2:20 AM30 °FIce fog.6 mph100%29.47 "Hg0 mi
1:50 AM30 °FIce fog.8 mph100%29.50 "Hg0 mi
1:20 AM30 °FIce fog.7 mph100%29.50 "Hg1 mi
12:50 AM30 °FIce fog.6 mph100%29.50 "Hg3 mi
12:20 AM30 °FPassing clouds.5 mph100%29.50 "Hg3 mi
11:50 PM
Fri, Feb 12
32 °FPassing clouds.6 mph93%29.50 "Hg4 mi
11:20 PM32 °FPassing clouds.6 mph100%29.50 "Hg4 mi
10:20 PM32 °FPassing clouds.5 mph93%29.50 "Hg5 mi
9:50 PM32 °FClear.6 mph93%29.50 "Hg5 mi
9:20 PM34 °FPassing clouds.5 mph93%29.50 "Hg5 mi
8:50 PM36 °FPassing clouds.7 mph93%29.50 "Hg6 mi
8:20 PM36 °FPassing clouds.7 mph93%29.50 "HgN/A
7:50 PM37 °FPassing clouds.6 mph87%29.50 "HgN/A
7:20 PM37 °FPassing clouds.5 mph87%29.50 "HgN/A
6:50 PM39 °FPassing clouds.2 mph87%29.50 "HgN/A
6:20 PM39 °FPassing clouds.3 mph81%29.50 "HgN/A
5:50 PM39 °FPassing clouds.5 mph81%29.50 "HgN/A
5:20 PM39 °FPartly sunny.5 mph81%29.50 "HgN/A
4:50 PM41 °FPartly sunny.5 mph76%29.53 "HgN/A
4:20 PM41 °FPartly sunny.6 mph76%29.53 "HgN/A
3:50 PM41 °FPartly sunny.5 mph76%29.53 "HgN/A
3:20 PM41 °FPartly sunny.9 mph76%29.53 "HgN/A
2:50 PM41 °FPartly sunny.6 mph81%29.53 "HgN/A
2:20 PM41 °FPartly sunny.2 mph76%29.53 "HgN/A
1:50 PM41 °FPartly sunny.2 mph76%29.53 "HgN/A
1:20 PM43 °FPassing clouds.2 mph76%29.56 "HgN/A
12:50 PM41 °FScattered clouds.3 mph81%29.56 "HgN/A
12:20 PM41 °FPartly sunny.6 mph81%29.56 "Hg5 mi
11:50 AM37 °FFog.5 mph93%29.59 "Hg3 mi
11:20 AM37 °FFog.6 mph93%29.59 "Hg2 mi
10:50 AM37 °FFog.3 mph93%29.59 "Hg2 mi
10:20 AM36 °FFog.5 mph100%29.59 "Hg2 mi
Weather by CustomWeather, © 2016

See weather overviewHow to use our weather pages